| time (UTC) | temp C | wind direction | speed KPH | gust KPH | rain 1hr cm | rain 24hr cm | rain mn cm | humidity % | barometer mb |
| 20260904071608 | 22 | 71 | 3.2 | 8.0 | 0.00 | 2.06 | 0.00 | 94 | 1013.0 |
| 20260904070131 | 21 | 70 | 1.6 | 6.4 | 0.00 | 2.06 | 0.00 | 94 | 1012.7 |
| 20260904064606 | 21 | 102 | 1.6 | 8.0 | 0.00 | 2.06 | 0.00 | 95 | 1012.8 |
| 20260904063101 | 21 | 49 | 3.2 | 8.0 | 0.00 | 2.06 | 0.00 | 94 | 1012.8 |
| 20260904061608 | 22 | 55 | 1.6 | 6.4 | 0.00 | 2.06 | 0.00 | 94 | 1012.9 |
| 20260904060106 | 22 | 89 | 3.2 | 6.4 | 0.00 | 2.06 | 0.00 | 94 | 1012.9 |
| 20260904054607 | 22 | 71 | 3.2 | 6.4 | 0.00 | 2.06 | 0.00 | 94 | 1013.0 |
| 20260904053107 | 22 | 82 | 1.6 | 8.0 | 0.00 | 2.06 | 0.00 | 94 | 1013.3 |
| 20260904051608 | 22 | 0 | 0.0 | 1.6 | 0.00 | 2.06 | 0.00 | 94 | 1013.3 |
| 20260904050109 | 22 | 0 | 0.0 | 4.8 | 0.00 | 2.06 | 0.00 | 93 | 1013.3 |
| 20260904044605 | 22 | 44 | 3.2 | 8.0 | 0.00 | 2.06 | 2.06 | 93 | 1013.7 |
| 20260904043122 | 22 | 103 | 1.6 | 8.0 | 0.00 | 2.06 | 2.06 | 93 | 1013.6 |
| 20260904041606 | 22 | 82 | 4.8 | 8.0 | 0.00 | 2.06 | 2.06 | 92 | 1013.6 |
| 20260904040107 | 22 | 83 | 0.0 | 4.8 | 0.00 | 2.06 | 2.06 | 92 | 1013.5 |
| 20260904034605 | 22 | 85 | 3.2 | 6.4 | 0.00 | 2.06 | 2.06 | 92 | 1013.5 |
| 20260904033101 | 22 | 83 | 4.8 | 9.7 | 0.00 | 2.06 | 2.06 | 92 | 1013.6 |
| 20260904031602 | 22 | 72 | 3.2 | 4.8 | 0.00 | 2.06 | 2.06 | 92 | 1014.0 |
| 20260904030059 | 22 | 73 | 0.0 | 3.2 | 0.00 | 2.06 | 2.06 | 91 | 1014.0 |
| 20260904024604 | 22 | 70 | 1.6 | 4.8 | 0.00 | 2.06 | 2.06 | 91 | 1013.9 |
| 20260904023102 | 22 | 47 | 3.2 | 9.7 | 0.00 | 2.06 | 2.06 | 91 | 1013.8 |
| 20260904021602 | 22 | 78 | 1.6 | 8.0 | 0.00 | 2.06 | 2.06 | 90 | 1013.7 |
| 20260904020106 | 22 | 70 | 4.8 | 8.0 | 0.00 | 2.06 | 2.06 | 90 | 1013.7 |
| 20260904014645 | 22 | 0 | 0.0 | 0.0 | 0.00 | 2.06 | 2.06 | 90 | 1013.6 |
| 20260904013103 | 22 | 0 | 0.0 | 1.6 | 0.00 | 2.06 | 2.06 | 89 | 1013.5 |
| 20260904011602 | 23 | 70 | 1.6 | 4.8 | 0.00 | 2.06 | 2.06 | 88 | 1013.2 |
| 20260904010100 | 23 | 64 | 0.0 | 4.8 | 0.00 | 2.06 | 2.06 | 87 | 1013.0 |
| 20260904004605 | 23 | 113 | 3.2 | 4.8 | 0.00 | 2.06 | 2.06 | 87 | 1012.9 |
| 20260904003110 | 23 | 72 | 1.6 | 4.8 | 0.00 | 2.06 | 2.06 | 86 | 1012.8 |
| 20260904001602 | 23 | 50 | 0.0 | 6.4 | 0.00 | 2.06 | 2.06 | 85 | 1012.8 |
| 20260904000140 | 24 | 45 | 3.2 | 9.7 | 0.00 | 2.06 | 2.06 | 84 | 1012.8 |
| 20260903234604 | 25 | 77 | 6.4 | 11.3 | 0.00 | 2.06 | 2.06 | 85 | 1012.7 |
| 20260903233101 | 25 | 88 | 6.4 | 11.3 | 0.00 | 2.06 | 2.06 | 85 | 1012.5 |
| 20260903231618 | 26 | 340 | 14.5 | 19.3 | 0.00 | 2.06 | 2.06 | 84 | 1012.3 |
| 20260903230108 | 27 | 85 | 1.6 | 6.4 | 0.00 | 2.06 | 2.06 | 81 | 1012.1 |
| 20260903224602 | 27 | 79 | 3.2 | 4.8 | 0.00 | 2.06 | 2.06 | 79 | 1012.3 |
| 20260903223108 | 27 | 0 | 0.0 | 0.0 | 0.00 | 2.06 | 2.06 | 83 | 1012.6 |
| 20260903221559 | 27 | 0 | 0.0 | 0.0 | 0.00 | 2.06 | 2.06 | 81 | 1012.4 |
| 20260903220110 | 28 | 0 | 0.0 | 0.0 | 0.00 | 2.06 | 2.06 | 78 | 1012.4 |
| 20260903214606 | 28 | 0 | 0.0 | 0.0 | 0.00 | 2.06 | 2.06 | 77 | 1012.5 |
| 20260903213104 | 28 | 0 | 0.0 | 1.6 | 0.00 | 2.06 | 2.06 | 77 | 1012.7 |
| 20260903211602 | 28 | 0 | 0.0 | 0.0 | 0.00 | 2.06 | 2.06 | 77 | 1012.5 |
| 20260903204608 | 28 | 0 | 0.0 | 3.2 | 0.00 | 2.06 | 2.06 | 75 | 1012.4 |
| 20260903203106 | 28 | 0 | 0.0 | 1.6 | 0.00 | 2.06 | 2.06 | 74 | 1012.5 |
| 20260903201601 | 27 | 0 | 0.0 | 1.6 | 0.00 | 2.06 | 2.06 | 77 | 1012.6 |
| 20260903200101 | 27 | 0 | 0.0 | 1.6 | 0.00 | 2.06 | 2.06 | 82 | 1012.6 |
| 20260903194602 | 26 | 0 | 0.0 | 3.2 | 0.00 | 2.06 | 2.06 | 81 | 1012.7 |
| 20260903193111 | 27 | 0 | 0.0 | 1.6 | 0.03 | 2.06 | 2.06 | 78 | 1012.9 |
| 20260903191607 | 26 | 0 | 0.0 | 1.6 | 0.03 | 2.06 | 2.06 | 81 | 1013.2 |
| 20260903190113 | 26 | 58 | 0.0 | 3.2 | 0.03 | 2.06 | 2.06 | 83 | 1013.2 |
| 20260903184604 | 26 | 0 | 0.0 | 1.6 | 0.03 | 2.06 | 2.06 | 84 | 1013.7 |
| 20260903183106 | 25 | 94 | 0.0 | 1.6 | 0.00 | 2.03 | 2.03 | 89 | 1013.5 |
| 20260903181609 | 24 | 0 | 0.0 | 1.6 | 0.00 | 2.03 | 2.03 | 93 | 1013.8 |
| 20260903180107 | 22 | 237 | 0.0 | 1.6 | 0.00 | 2.03 | 2.03 | 94 | 1014.0 |
| 20260903174612 | 22 | 129 | 0.0 | 1.6 | 0.03 | 2.03 | 2.03 | 94 | 1014.0 |
| 20260903173109 | 22 | 81 | 0.0 | 3.2 | 0.18 | 2.03 | 2.03 | 94 | 1014.0 |
| 20260903171601 | 22 | 84 | 1.6 | 9.7 | 0.33 | 2.03 | 2.03 | 94 | 1013.2 |
| 20260903170110 | 22 | 105 | 8.0 | 19.3 | 0.56 | 2.03 | 2.03 | 95 | 1013.3 |
| 20260903164603 | 21 | 37 | 4.8 | 9.7 | 0.53 | 2.01 | 2.01 | 95 | 1014.2 |
| 20260903163112 | 21 | 78 | 0.0 | 3.2 | 1.19 | 1.83 | 1.83 | 95 | 1015.4 |
| 20260903161612 | 21 | 0 | 0.0 | 6.4 | 1.47 | 1.70 | 1.70 | 95 | 1016.5 |
| 20260903160108 | 21 | 253 | 3.2 | 6.4 | 1.42 | 1.47 | 1.47 | 94 | 1017.1 |
| 20260903154608 | 21 | 0 | 0.0 | 1.6 | 1.47 | 1.47 | 1.47 | 93 | 1015.9 |
| 20260903153104 | 21 | 228 | 3.2 | 6.4 | 0.58 | 0.58 | 0.58 | 92 | 1016.3 |
| 20260903151603 | 21 | 113 | 0.0 | 1.6 | 0.20 | 0.20 | 0.20 | 89 | 1015.5 |
| 20260903150117 | 22 | 0 | 0.0 | 0.0 | 0.05 | 0.05 | 0.05 | 83 | 1015.5 |
| 20260903144603 | 22 | 89 | 4.8 | 16.1 | 0.00 | 0.00 | 0.00 | 79 | 1015.1 |
| 20260903143102 | 23 | 40 | 6.4 | 16.1 | 0.00 | 0.00 | 0.00 | 77 | 1014.8 |
| 20260903141605 | 24 | 60 | 8.0 | 19.3 | 0.00 | 0.00 | 0.00 | 76 | 1014.6 |
| 20260903140106 | 25 | 95 | 6.4 | 14.5 | 0.00 | 0.00 | 0.00 | 86 | 1014.3 |
| 20260903134556 | 25 | 81 | 3.2 | 8.0 | 0.00 | 0.00 | 0.00 | 90 | 1014.2 |
| 20260903133102 | 24 | 0 | 3.2 | 8.0 | 0.00 | 0.00 | 0.00 | 90 | 1013.8 |
| 20260903131605 | 25 | 0 | 0.0 | 3.2 | 0.00 | 0.00 | 0.00 | 90 | 1013.0 |
| 20260903130105 | 23 | 274 | 0.0 | 1.6 | 0.00 | 0.00 | 0.00 | 95 | 1012.6 |
| 20260903124602 | 23 | 0 | 0.0 | 1.6 | 0.00 | 0.00 | 0.00 | 96 | 1012.4 |
| 20260903123100 | 22 | 0 | 0.0 | 1.6 | 0.00 | 0.00 | 0.00 | 96 | 1012.4 |
| 20260903121601 | 22 | 0 | 0.0 | 0.0 | 0.00 | 0.00 | 0.00 | 96 | 1012.4 |
| 20260903120059 | 22 | 0 | 0.0 | 0.0 | 0.00 | 0.00 | 0.00 | 96 | 1012.6 |
| 20260903114618 | 22 | 0 | 0.0 | 0.0 | 0.00 | 0.00 | 0.00 | 96 | 1012.5 |
| 20260903113101 | 21 | 0 | 0.0 | 0.0 | 0.00 | 0.00 | 0.00 | 96 | 1012.6 |
| 20260903111617 | 21 | 0 | 0.0 | 0.0 | 0.00 | 0.00 | 0.00 | 95 | 1012.6 |
| 20260903104613 | 22 | 0 | 0.0 | 0.0 | 0.00 | 0.00 | 0.00 | 96 | 1012.5 |
| 20260903103122 | 22 | 0 | 0.0 | 1.6 | 0.00 | 0.00 | 0.00 | 95 | 1012.4 |
| 20260903101604 | 22 | 0 | 0.0 | 0.0 | 0.00 | 0.00 | 0.00 | 95 | 1012.6 |
| 20260903094603 | 22 | 0 | 0.0 | 1.6 | 0.00 | 0.00 | 0.00 | 96 | 1012.7 |
| 20260903093128 | 22 | 0 | 0.0 | 0.0 | 0.00 | 0.00 | 0.00 | 95 | 1012.8 |
| 20260903091604 | 22 | 0 | 0.0 | 0.0 | 0.00 | 0.00 | 0.00 | 95 | 1012.7 |
| 20260903084558 | 22 | 0 | 0.0 | 0.0 | 0.00 | 0.00 | 0.00 | 95 | 1012.5 |
| 20260903083101 | 23 | 0 | 0.0 | 1.6 | 0.00 | 0.00 | 0.00 | 96 | 1012.6 |
| 20260903081559 | 22 | 0 | 0.0 | 0.0 | 0.00 | 0.00 | 0.00 | 95 | 1012.6 |
| 20260903074600 | 22 | 0 | 0.0 | 0.0 | 0.00 | 0.00 | 0.00 | 95 | 1012.6 |
| 20260903073100 | 22 | 0 | 0.0 | 0.0 | 0.00 | 0.00 | 0.00 | 95 | 1012.6 |